DW8102 Weather Reports


Display with metric or nautical units.
time (UTC)temp
F
wind
direction
speed
MPH
gust
MPH
rain 1hr
in
rain 24hr
in
rain mn
in
humidity
%
barometer
mb
20260507003052 34 91 0.0 0.0 0.00 0.00 0.00 85 1014.3
20260507001608 35 90 0.0 0.0 0.00 0.00 0.00 85 1014.2
20260507000148 35 167 0.0 0.0 0.00 0.00 0.00 84 1014.0
20260506234546 35 167 0.0 0.0 0.00 0.00 0.00 81 1014.0
20260506233047 36 196 0.0 0.0 0.00 0.00 0.00 81 1014.0
20260506231544 37 198 0.0 0.0 0.00 0.00 0.00 80 1014.1
20260506230136 38 198 0.0 0.0 0.00 0.00 0.00 76 1013.9
20260506224534 39 198 0.0 0.0 0.00 0.00 0.00 75 1013.9
20260506223031 39 188 0.0 0.0 0.00 0.00 0.00 73 1013.7
20260506221529 40 153 0.0 0.0 0.00 0.00 0.00 72 1013.7
20260506220128 40 163 0.0 1.0 0.00 0.00 0.00 71 1013.6
20260506214524 41 139 0.0 1.0 0.00 0.00 0.00 70 1013.5
20260506213022 41 142 0.0 0.0 0.00 0.00 0.00 69 1013.3
20260506211520 41 140 0.0 0.0 0.00 0.00 0.00 67 1013.3
20260506210138 42 143 0.0 0.0 0.00 0.00 0.00 63 1013.3
20260506204518 42 143 0.0 0.0 0.00 0.00 0.00 62 1013.2
20260506203018 43 143 0.0 0.0 0.00 0.00 0.00 58 1013.2
20260506201513 43 141 0.0 0.0 0.00 0.00 0.00 53 1013.2
20260506200151 44 149 0.0 1.0 0.00 0.00 0.00 52 1013.1
20260506194511 45 172 0.0 2.0 0.00 0.00 0.00 49 1013.2
20260506193006 45 136 0.0 0.0 0.00 0.00 0.00 46 1013.1
20260506191503 46 136 0.0 1.0 0.00 0.00 0.00 44 1013.1
20260506190100 48 190 0.0 1.0 0.00 0.00 0.00 45 1013.1
20260506184557 48 190 0.0 3.0 0.00 0.00 0.00 41 1013.0
20260506183054 50 141 0.0 6.0 0.00 0.00 0.00 40 1012.8
20260506181551 51 154 0.0 3.0 0.00 0.00 0.00 40 1012.7
20260506180052 53 155 0.0 6.0 0.00 0.00 0.00 37 1012.5
20260506174546 53 177 0.0 4.0 0.00 0.00 0.00 38 1012.3
20260506173043 53 130 0.0 4.0 0.00 0.00 0.00 38 1012.3
20260506171550 54 134 0.0 2.0 0.00 0.00 0.00 39 1012.1
20260506170041 56 125 0.0 3.0 0.00 0.00 0.00 37 1012.2
20260506164538 57 181 0.0 3.0 0.00 0.00 0.00 36 1012.2
20260506163045 57 128 0.0 3.0 0.00 0.00 0.00 36 1012.1
20260506161548 58 135 0.0 0.0 0.00 0.00 0.00 32 1012.1
20260506160034 58 104 0.0 1.0 0.00 0.00 0.00 30 1012.1
20260506154534 56 193 0.0 2.0 0.00 0.00 0.00 32 1012.2
20260506153032 57 342 0.0 1.0 0.00 0.00 0.00 32 1012.2
20260506151531 56 74 0.0 4.0 0.00 0.00 0.00 31 1012.3
20260506150033 57 336 0.0 0.0 0.00 0.00 0.00 35 1012.4
20260506144527 56 66 0.0 1.0 0.00 0.00 0.00 34 1012.5
20260506143023 56 352 0.0 7.0 0.00 0.00 0.00 35 1012.6
20260506141521 55 334 0.0 1.0 0.00 0.00 0.00 37 1012.6
20260506140021 54 347 0.0 0.0 0.00 0.00 0.00 35 1012.7
20260506134546 53 360 0.0 0.0 0.00 0.00 0.00 35 1012.7
20260506133017 54 357 0.0 1.0 0.00 0.00 0.00 36 1012.8
20260506131515 56 338 0.0 1.0 0.00 0.00 0.00 36 1012.9
20260506130015 55 50 0.0 1.0 0.00 0.00 0.00 35 1013.0
20260506124516 55 340 0.0 2.0 0.00 0.00 0.00 34 1013.0
20260506123010 54 37 0.0 2.0 0.00 0.00 0.00 33 1013.1
20260506121510 55 338 0.0 5.0 0.00 0.00 0.00 33 1013.2
20260506120011 54 68 0.0 1.0 0.00 0.00 0.00 34 1013.3
20260506114511 53 15 0.0 4.0 0.00 0.00 0.00 34 1013.3
20260506113007 54 26 0.0 1.0 0.00 0.00 0.00 35 1013.3
20260506111506 53 339 0.0 4.0 0.00 0.00 0.00 34 1013.4
20260506110011 54 336 0.0 0.0 0.00 0.00 0.00 36 1013.6
20260506104502 53 347 0.0 0.0 0.00 0.00 0.00 34 1013.7
20260506103007 53 8 0.0 1.0 0.00 0.00 0.00 35 1013.7
20260506101500 53 355 0.0 0.0 0.00 0.00 0.00 35 1013.9
20260506100001 55 345 0.0 0.0 0.00 0.00 0.00 36 1014.0
20260506094501 55 77 0.0 0.0 0.00 0.00 0.00 36 1014.1
20260506093100 54 31 0.0 1.0 0.00 0.00 0.00 42 1014.2
20260506091556 52 207 0.0 1.0 0.00 0.00 0.00 39 1014.1
20260506090055 52 70 0.0 0.0 0.00 0.00 0.00 43 1014.2
20260506084559 51 200 0.0 0.0 0.00 0.00 0.00 38 1014.4
20260506083114 51 346 0.0 0.0 0.00 0.00 0.00 41 1014.4
20260506081553 51 151 0.0 0.0 0.00 0.00 0.00 39 1014.3
20260506073052 52 53 0.0 1.0 0.00 0.00 0.00 44 1014.4
20260506071554 50 117 0.0 1.0 0.00 0.00 0.00 49 1014.4
20260506070105 50 129 0.0 0.0 0.00 0.00 0.00 54 1014.5
20260506061549 46 210 0.0 0.0 0.00 0.00 0.00 70 1014.4
20260506044541 41 329 0.0 0.0 0.00 0.00 0.00 85 1013.7
20260506043040 40 329 0.0 0.0 0.00 0.00 0.00 85 1013.7
20260506041540 41 329 0.0 0.0 0.00 0.00 0.00 87 1013.6
20260506040037 35 329 0.0 0.0 0.00 0.00 0.00 93 1013.5
20260506034534 32 329 0.0 0.0 0.00 0.00 0.00 91 1013.4
20260506033032 31 329 0.0 0.0 0.00 0.00 0.00 91 1013.2
20260506031538 31 329 0.0 0.0 0.00 0.00 0.00 91 1013.1
20260506030030 30 329 0.0 0.0 0.00 0.00 0.00 89 1013.0
20260506024538 30 329 0.0 0.0 0.00 0.00 0.00 88 1012.9
20260506023029 30 329 0.0 0.0 0.00 0.00 0.00 87 1012.9
20260506021527 30 329 0.0 0.0 0.00 0.00 0.00 88 1012.9
20260506020024 30 329 0.0 0.0 0.00 0.00 0.00 89 1012.7
20260506014523 31 329 0.0 0.0 0.00 0.00 0.00 88 1012.7
20260506013022 31 328 0.0 0.0 0.00 0.00 0.00 87 1012.6
20260506011546 32 328 0.0 0.0 0.00 0.00 0.00 86 1012.5
20260506010018 32 329 0.0 0.0 0.00 0.00 0.00 88 1012.3
20260506004518 31 328 0.0 0.0 0.00 0.00 0.00 87 1012.2